Time,TemperatureF,DewpointF,PressureIn,WindDirection,WindDirectionDegrees,WindSpeedMPH,WindSpeedGustMPH,Humidity,HourlyPrecipIn,Conditions,Clouds,dailyrainin,SoftwareType,DateUTC
2013-01-13 00:08:00,-3.9,0.0,29.77,WNW,299,0.0,0.0,0,0.00,CLR,CLR,0.00,WeatherDisplay:10.36,2013-01-13 07:08:00,
2013-01-13 00:23:00,-3.5,0.0,29.77,WNW,299,0.0,0.0,0,0.00,CLR,CLR,0.00,WeatherDisplay:10.36,2013-01-13 07:23:00,
2013-01-13 00:38:00,-3.6,0.0,29.77,WNW,299,0.0,0.0,0,0.00,CLR,CLR,0.00,WeatherDisplay:10.36,2013-01-13 07:38:00,
2013-01-13 00:53:00,-3.8,0.0,29.77,WNW,299,0.0,0.0,0,0.00,CLR,CLR,0.00,WeatherDisplay:10.36,2013-01-13 07:53:00,
2013-01-13 01:08:00,-3.8,0.0,29.77,WNW,299,0.0,0.0,0,0.00,CLR,CLR,0.00,WeatherDisplay:10.36,2013-01-13 08:08:00,
2013-01-13 01:23:00,-4.2,0.0,29.78,WNW,299,0.0,0.0,0,0.00,CLR,CLR,0.00,WeatherDisplay:10.36,2013-01-13 08:23:00,
2013-01-13 01:38:00,-4.6,0.0,29.78,WNW,299,0.0,0.0,0,0.00,CLR,CLR,0.00,WeatherDisplay:10.36,2013-01-13 08:38:00,
2013-01-13 01:53:00,-4.9,0.0,29.78,WNW,299,0.0,0.0,0,0.00,CLR,CLR,0.00,WeatherDisplay:10.36,2013-01-13 08:53:00,
2013-01-13 02:08:00,-4.9,0.0,29.78,WNW,299,0.0,0.0,0,0.00,CLR,CLR,0.00,WeatherDisplay:10.36,2013-01-13 09:08:00,
2013-01-13 02:23:00,-4.8,0.0,29.78,WNW,299,0.0,0.0,0,0.00,CLR,CLR,0.00,WeatherDisplay:10.36,2013-01-13 09:23:00,
2013-01-13 02:38:00,-5.2,0.0,29.78,WNW,299,0.0,0.0,0,0.00,CLR,CLR,0.00,WeatherDisplay:10.36,2013-01-13 09:38:00,
2013-01-13 02:53:00,-5.2,0.0,29.78,WNW,299,0.0,0.0,0,0.00,CLR,CLR,0.00,WeatherDisplay:10.36,2013-01-13 09:53:00,
2013-01-13 03:08:00,-6.4,0.0,29.78,WNW,299,0.0,0.0,0,0.00,CLR,CLR,0.00,WeatherDisplay:10.36,2013-01-13 10:08:00,
2013-01-13 03:23:00,-6.1,0.0,29.77,WNW,299,0.0,0.0,0,0.00,CLR,CLR,0.00,WeatherDisplay:10.36,2013-01-13 10:23:00,
2013-01-13 03:38:00,-6.6,0.0,29.77,WNW,299,0.0,0.0,0,0.00,CLR,CLR,0.00,WeatherDisplay:10.36,2013-01-13 10:38:00,
2013-01-13 03:53:00,-6.8,0.0,29.77,WNW,299,0.0,0.0,0,0.00,CLR,CLR,0.00,WeatherDisplay:10.36,2013-01-13 10:53:00,
2013-01-13 04:08:00,-6.8,0.0,29.76,WNW,299,0.0,0.0,0,0.00,CLR,CLR,0.00,WeatherDisplay:10.36,2013-01-13 11:08:00,
2013-01-13 04:23:00,-6.7,0.0,29.77,WNW,299,0.0,0.0,0,0.00,CLR,CLR,0.00,WeatherDisplay:10.36,2013-01-13 11:23:00,
2013-01-13 04:38:00,-6.8,0.0,29.77,WNW,299,0.0,0.0,0,0.00,CLR,CLR,0.00,WeatherDisplay:10.36,2013-01-13 11:38:00,
2013-01-13 04:53:00,-6.9,0.0,29.77,WNW,299,0.0,0.0,0,0.00,CLR,CLR,0.00,WeatherDisplay:10.36,2013-01-13 11:53:00,
2013-01-13 05:08:00,-6.9,0.0,29.76,WNW,299,0.0,0.0,0,0.00,CLR,CLR,0.00,WeatherDisplay:10.36,2013-01-13 12:08:00,
2013-01-13 05:23:00,-6.6,0.0,29.76,WNW,299,0.0,0.0,0,0.00,CLR,CLR,0.00,WeatherDisplay:10.36,2013-01-13 12:23:00,
2013-01-13 05:38:00,-6.9,0.0,29.78,WNW,299,0.0,0.0,0,0.00,CLR,CLR,0.00,WeatherDisplay:10.36,2013-01-13 12:38:00,
2013-01-13 05:53:00,-7.3,0.0,29.77,WNW,299,0.0,0.0,0,0.00,CLR,CLR,0.00,WeatherDisplay:10.36,2013-01-13 12:53:00,
2013-01-13 06:08:00,-6.8,0.0,29.78,WNW,299,0.0,0.0,0,0.00,CLR,CLR,0.00,WeatherDisplay:10.36,2013-01-13 13:08:00,
2013-01-13 06:23:00,-6.7,0.0,29.79,WNW,299,0.0,0.0,0,0.00,CLR,CLR,0.00,WeatherDisplay:10.36,2013-01-13 13:23:00,
2013-01-13 06:38:00,-6.8,0.0,29.80,WNW,299,0.0,0.0,0,0.00,CLR,CLR,0.00,WeatherDisplay:10.36,2013-01-13 13:38:00,
2013-01-13 06:53:00,-7.1,0.0,29.80,WNW,299,0.0,0.0,0,0.00,CLR,CLR,0.00,WeatherDisplay:10.36,2013-01-13 13:53:00,
2013-01-13 07:08:00,-7.1,0.0,29.81,WNW,299,0.0,0.0,0,0.00,CLR,CLR,0.00,WeatherDisplay:10.36,2013-01-13 14:08:00,
2013-01-13 07:23:00,-6.7,0.0,29.81,WNW,299,0.0,0.0,0,0.00,CLR,CLR,0.00,WeatherDisplay:10.36,2013-01-13 14:23:00,
2013-01-13 07:38:00,-6.3,0.0,29.82,WNW,299,0.0,0.0,0,0.00,CLR,CLR,0.00,WeatherDisplay:10.36,2013-01-13 14:38:00,
2013-01-13 07:53:00,-5.5,0.0,29.82,WNW,299,0.0,0.0,0,0.00,CLR,CLR,0.00,WeatherDisplay:10.36,2013-01-13 14:53:00,
2013-01-13 08:08:00,-4.6,0.0,29.82,WNW,299,0.0,0.0,0,0.00,CLR,CLR,0.00,WeatherDisplay:10.36,2013-01-13 15:08:00,
2013-01-13 08:23:00,-4.1,0.0,29.83,WNW,299,0.0,0.0,0,0.00,CLR,CLR,0.00,WeatherDisplay:10.36,2013-01-13 15:23:00,
2013-01-13 08:38:00,-2.7,0.0,29.83,WNW,299,0.0,0.0,0,0.00,CLR,CLR,0.00,WeatherDisplay:10.36,2013-01-13 15:38:00,
2013-01-13 08:53:00,-0.5,0.0,29.84,WNW,299,0.0,0.0,0,0.00,CLR,CLR,0.00,WeatherDisplay:10.36,2013-01-13 15:53:00,
2013-01-13 09:08:00,1.2,0.0,29.83,WNW,299,0.0,0.0,0,0.00,CLR,CLR,0.00,WeatherDisplay:10.36,2013-01-13 16:08:00,
2013-01-13 09:23:00,3.3,0.0,29.83,WNW,299,0.0,0.0,0,0.00,CLR,CLR,0.00,WeatherDisplay:10.36,2013-01-13 16:23:00,
2013-01-13 09:38:00,3.9,0.0,29.83,WNW,299,0.0,0.0,0,0.00,CLR,CLR,0.00,WeatherDisplay:10.36,2013-01-13 16:38:00,
2013-01-13 09:53:00,4.7,0.0,29.83,WNW,299,0.0,0.0,0,0.00,CLR,CLR,0.00,WeatherDisplay:10.36,2013-01-13 16:53:00,
2013-01-13 10:08:00,6.8,0.0,29.83,WNW,299,0.0,0.0,0,0.00,CLR,CLR,0.00,WeatherDisplay:10.36,2013-01-13 17:08:00,
2013-01-13 10:23:00,6.3,0.0,29.83,WNW,299,0.0,0.0,0,0.00,CLR,CLR,0.00,WeatherDisplay:10.36,2013-01-13 17:23:00,
2013-01-13 10:38:00,7.7,0.0,29.83,WNW,299,0.0,0.0,0,0.00,CLR,CLR,0.00,WeatherDisplay:10.36,2013-01-13 17:38:00,
2013-01-13 10:53:00,8.6,0.0,29.82,NNW,331,0.0,5.0,0,0.00,CLR,CLR,0.00,WeatherDisplay:10.36,2013-01-13 17:53:00,
2013-01-13 11:08:00,11.4,0.0,29.81,North,10,0.0,0.0,0,0.00,CLR,CLR,0.00,WeatherDisplay:10.36,2013-01-13 18:08:00,
2013-01-13 11:23:00,11.7,0.0,29.80,North,10,0.0,0.0,0,0.00,CLR,CLR,0.00,WeatherDisplay:10.36,2013-01-13 18:23:00,
2013-01-13 11:38:00,13.2,0.0,29.79,North,10,0.0,0.0,0,0.00,CLR,CLR,0.00,WeatherDisplay:10.36,2013-01-13 18:38:00,
2013-01-13 11:53:00,11.2,0.0,29.78,SSW,203,0.0,3.0,0,0.00,CLR,CLR,0.00,WeatherDisplay:10.36,2013-01-13 18:53:00,
2013-01-13 12:08:00,11.8,0.0,29.77,SE,144,0.0,5.0,0,0.00,CLR,CLR,0.00,WeatherDisplay:10.36,2013-01-13 19:08:00,
2013-01-13 12:23:00,12.8,0.0,29.77,SE,128,0.0,6.0,0,0.00,CLR,CLR,0.00,WeatherDisplay:10.36,2013-01-13 19:23:00,
2013-01-13 12:38:00,13.0,0.0,29.76,SSE,163,0.0,5.0,0,0.00,CLR,CLR,0.00,WeatherDisplay:10.36,2013-01-13 19:38:00,
2013-01-13 12:53:00,10.5,0.0,29.77,SSE,159,1.0,7.0,0,0.00,CLR,CLR,0.00,WeatherDisplay:10.36,2013-01-13 19:53:00,
2013-01-13 13:08:00,10.2,0.0,29.76,SSW,212,2.0,8.0,0,0.00,CLR,CLR,0.00,WeatherDisplay:10.36,2013-01-13 20:08:00,
2013-01-13 13:23:00,8.6,0.0,29.77,SE,140,1.0,8.0,0,0.00,CLR,CLR,0.00,WeatherDisplay:10.36,2013-01-13 20:23:00,
2013-01-13 13:38:00,7.4,0.0,29.77,SE,143,3.0,9.0,0,0.00,CLR,CLR,0.00,WeatherDisplay:10.36,2013-01-13 20:38:00,
2013-01-13 13:53:00,7.5,0.0,29.77,SSE,163,1.0,8.0,0,0.00,CLR,CLR,0.00,WeatherDisplay:10.36,2013-01-13 20:53:00,
2013-01-13 14:08:00,7.7,0.0,29.78,SSE,157,3.0,7.0,0,0.00,CLR,CLR,0.00,WeatherDisplay:10.36,2013-01-13 21:08:00,
2013-01-13 14:23:00,7.5,0.0,29.78,SSE,158,3.0,8.0,0,0.00,CLR,CLR,0.00,WeatherDisplay:10.36,2013-01-13 21:23:00,
2013-01-13 14:38:00,6.4,0.0,29.79,SE,146,3.0,8.0,0,0.00,CLR,CLR,0.00,WeatherDisplay:10.36,2013-01-13 21:38:00,
2013-01-13 14:53:00,6.5,0.0,29.80,SSE,159,0.0,8.0,0,0.00,CLR,CLR,0.00,WeatherDisplay:10.36,2013-01-13 21:53:00,
2013-01-13 15:08:00,6.8,0.0,29.80,SSE,158,0.0,6.0,0,0.00,CLR,CLR,0.00,WeatherDisplay:10.36,2013-01-13 22:08:00,
2013-01-13 15:23:00,6.0,0.0,29.81,SSE,147,0.0,7.0,0,0.00,CLR,CLR,0.00,WeatherDisplay:10.36,2013-01-13 22:23:00,
2013-01-13 15:38:00,5.2,0.0,29.82,SSE,165,0.0,8.0,0,0.00,CLR,CLR,0.00,WeatherDisplay:10.36,2013-01-13 22:38:00,
2013-01-13 15:53:00,5.0,0.0,29.82,SSE,166,0.0,7.0,0,0.00,CLR,CLR,0.00,WeatherDisplay:10.36,2013-01-13 22:53:00,
2013-01-13 16:08:00,4.2,0.0,29.83,SE,143,2.0,5.0,0,0.00,CLR,CLR,0.00,WeatherDisplay:10.36,2013-01-13 23:08:00,
2013-01-13 16:23:00,4.0,0.0,29.83,SSE,151,0.0,6.0,0,0.00,CLR,CLR,0.00,WeatherDisplay:10.36,2013-01-13 23:23:00,
2013-01-13 16:38:00,2.7,0.0,29.83,SE,141,0.0,5.0,0,0.00,CLR,CLR,0.00,WeatherDisplay:10.36,2013-01-13 23:38:00,
2013-01-13 16:53:00,2.3,0.0,29.84,SW,214,0.0,5.0,0,0.00,CLR,CLR,0.00,WeatherDisplay:10.36,2013-01-13 23:53:00,
2013-01-13 17:08:00,1.6,0.0,29.84,SW,215,0.0,0.0,0,0.00,CLR,CLR,0.00,WeatherDisplay:10.36,2013-01-14 00:08:00,
2013-01-13 17:23:00,1.6,0.0,29.85,SW,215,0.0,0.0,0,0.00,CLR,CLR,0.00,WeatherDisplay:10.36,2013-01-14 00:23:00,
2013-01-13 17:38:00,1.5,0.0,29.85,SW,215,0.0,0.0,0,0.00,CLR,CLR,0.00,WeatherDisplay:10.36,2013-01-14 00:38:00,
2013-01-13 17:53:00,1.0,0.0,29.86,SW,215,0.0,0.0,0,0.00,CLR,CLR,0.00,WeatherDisplay:10.36,2013-01-14 00:53:00,
2013-01-13 18:08:00,0.7,0.0,29.86,SW,215,0.0,0.0,0,0.00,CLR,CLR,0.00,WeatherDisplay:10.36,2013-01-14 01:08:00,
2013-01-13 18:23:00,0.5,0.0,29.87,SW,215,0.0,0.0,0,0.00,CLR,CLR,0.00,WeatherDisplay:10.36,2013-01-14 01:23:00,
2013-01-13 18:38:00,0.8,0.0,29.87,SW,215,0.0,1.0,0,0.00,CLR,CLR,0.00,WeatherDisplay:10.36,2013-01-14 01:38:00,
2013-01-13 18:53:00,0.6,0.0,29.88,SW,215,0.0,0.0,0,0.00,CLR,CLR,0.00,WeatherDisplay:10.36,2013-01-14 01:53:00,
2013-01-13 19:08:00,0.8,0.0,29.88,SW,215,0.0,0.0,0,0.00,CLR,CLR,0.00,WeatherDisplay:10.36,2013-01-14 02:08:00,
2013-01-13 19:23:00,0.6,0.0,29.88,SW,215,0.0,0.0,0,0.00,CLR,CLR,0.00,WeatherDisplay:10.36,2013-01-14 02:23:00,
2013-01-13 19:38:00,0.7,0.0,29.88,SW,215,0.0,0.0,0,0.00,CLR,CLR,0.00,WeatherDisplay:10.36,2013-01-14 02:38:00,
2013-01-13 19:53:00,0.2,0.0,29.88,SW,215,0.0,0.0,0,0.00,CLR,CLR,0.00,WeatherDisplay:10.36,2013-01-14 02:53:00,
2013-01-13 20:08:00,-0.4,0.0,29.88,SW,215,0.0,0.0,0,0.00,CLR,CLR,0.00,WeatherDisplay:10.36,2013-01-14 03:08:00,
2013-01-13 20:23:00,-0.7,0.0,29.88,SW,215,0.0,0.0,0,0.00,CLR,CLR,0.00,WeatherDisplay:10.36,2013-01-14 03:23:00,
2013-01-13 20:38:00,-1.1,0.0,29.88,SW,215,0.0,0.0,0,0.00,CLR,CLR,0.00,WeatherDisplay:10.36,2013-01-14 03:38:00,
2013-01-13 20:53:00,-2.2,0.0,29.88,SW,215,0.0,0.0,0,0.00,CLR,CLR,0.00,WeatherDisplay:10.36,2013-01-14 03:53:00,
2013-01-13 21:08:00,-3.2,0.0,29.87,SW,215,0.0,0.0,0,0.00,CLR,CLR,0.00,WeatherDisplay:10.36,2013-01-14 04:08:00,
2013-01-13 21:23:00,-3.9,0.0,29.88,SW,215,0.0,0.0,0,0.00,CLR,CLR,0.00,WeatherDisplay:10.36,2013-01-14 04:23:00,
2013-01-13 21:38:00,-5.0,0.0,29.88,SW,215,0.0,0.0,0,0.00,CLR,CLR,0.00,WeatherDisplay:10.36,2013-01-14 04:38:00,
2013-01-13 21:53:00,-5.2,0.0,29.88,SW,215,0.0,0.0,0,0.00,CLR,CLR,0.00,WeatherDisplay:10.36,2013-01-14 04:53:00,
2013-01-13 22:08:00,-6.6,0.0,29.88,SW,215,0.0,0.0,0,0.00,CLR,CLR,0.00,WeatherDisplay:10.36,2013-01-14 05:08:00,
2013-01-13 22:23:00,-6.9,0.0,29.88,SW,215,0.0,0.0,0,0.00,CLR,CLR,0.00,WeatherDisplay:10.36,2013-01-14 05:23:00,
2013-01-13 22:38:00,-6.9,0.0,29.88,SW,215,0.0,0.0,0,0.00,CLR,CLR,0.00,WeatherDisplay:10.36,2013-01-14 05:38:00,
2013-01-13 22:53:00,-8.0,0.0,29.88,SW,215,0.0,0.0,0,0.00,CLR,CLR,0.00,WeatherDisplay:10.36,2013-01-14 05:53:00,
2013-01-13 23:08:00,-8.1,0.0,29.87,SW,215,0.0,0.0,0,0.00,CLR,CLR,0.00,WeatherDisplay:10.36,2013-01-14 06:08:00,
2013-01-13 23:23:00,-8.1,0.0,29.87,SW,215,0.0,0.0,0,0.00,CLR,CLR,0.00,WeatherDisplay:10.36,2013-01-14 06:23:00,
2013-01-13 23:38:00,-7.9,0.0,29.87,SW,215,0.0,0.0,0,0.00,CLR,CLR,0.00,WeatherDisplay:10.36,2013-01-14 06:38:00,
2013-01-13 23:53:00,-7.6,0.0,29.87,SW,215,0.0,0.0,0,0.00,CLR,CLR,0.00,WeatherDisplay:10.36,2013-01-14 06:53:00,